owner,sensor,date,latitude,longitude,vertical_datum,sea_water_temperature,qcFlag 
SCCF RECON,ioos:station:SCCF:51:1,2008-01-01T05:00:00Z,26.5545,-82.1715,1.8,23.73,2 
SCCF RECON,ioos:station:SCCF:51:1,2008-01-01T06:00:00Z,26.5545,-82.1715,1.8,23.7,2 
SCCF RECON,ioos:station:SCCF:51:1,2008-01-01T07:00:00Z,26.5545,-82.1715,1.8,23.62,2 
SCCF RECON,ioos:station:SCCF:51:1,2008-01-01T08:00:00Z,26.5545,-82.1715,1.8,23.61,2 
SCCF RECON,ioos:station:SCCF:51:1,2008-01-01T09:00:00Z,26.5545,-82.1715,1.8,23.57,2 
SCCF RECON,ioos:station:SCCF:51:1,2008-01-01T10:00:00Z,26.5545,-82.1715,1.8,23.56,2 
SCCF RECON,ioos:station:SCCF:51:1,2008-01-01T11:00:00Z,26.5545,-82.1715,1.8,23.41,2 
SCCF RECON,ioos:station:SCCF:51:1,2008-01-01T12:00:00Z,26.5545,-82.1715,1.8,23.37,2 
SCCF RECON,ioos:station:SCCF:51:1,2008-01-01T14:00:00Z,26.5545,-82.1715,1.8,23.24,2 
SCCF RECON,ioos:station:SCCF:51:1,2008-01-01T15:00:00Z,26.5545,-82.1715,1.8,23.43,2 
SCCF RECON,ioos:station:SCCF:51:1,2008-01-01T16:00:00Z,26.5545,-82.1715,1.8,23.38,2 
SCCF RECON,ioos:station:SCCF:51:1,2008-01-01T17:00:00Z,26.5545,-82.1715,1.8,23.36,2 
SCCF RECON,ioos:station:SCCF:51:1,2008-01-01T18:00:00Z,26.5545,-82.1715,1.8,23.47,2 
SCCF RECON,ioos:station:SCCF:51:1,2008-01-01T19:00:00Z,26.5545,-82.1715,1.8,23.45,2 
SCCF RECON,ioos:station:SCCF:51:1,2008-01-01T20:00:00Z,26.5545,-82.1715,1.8,23.44,2 
SCCF RECON,ioos:station:SCCF:51:1,2008-01-01T21:00:00Z,26.5545,-82.1715,1.8,23.19,2 
SCCF RECON,ioos:station:SCCF:51:1,2008-01-01T22:00:00Z,26.5545,-82.1715,1.8,23.02,2 
SCCF RECON,ioos:station:SCCF:51:1,2008-01-01T23:00:00Z,26.5545,-82.1715,1.8,22.78,2 
SCCF RECON,ioos:station:SCCF:51:1,2008-01-02T00:00:00Z,26.5545,-82.1715,1.8,22.73,2 
SCCF RECON,ioos:station:SCCF:51:1,2008-01-02T01:00:00Z,26.5545,-82.1715,1.8,22.56,2 
SCCF RECON,ioos:station:SCCF:51:1,2008-01-02T02:00:00Z,26.5545,-82.1715,1.8,22.47,2 
SCCF RECON,ioos:station:SCCF:51:1,2008-01-02T03:00:00Z,26.5545,-82.1715,1.8,22.42,2 
SCCF RECON,ioos:station:SCCF:51:1,2008-01-02T04:00:00Z,26.5545,-82.1715,1.8,22.23,2 
SCCF RECON,ioos:station:SCCF:51:1,2008-01-02T05:00:00Z,26.5545,-82.1715,1.8,22.04,2 
SCCF RECON,ioos:station:SCCF:51:1,2008-01-02T06:00:00Z,26.5545,-82.1715,1.8,21.69,2 
SCCF RECON,ioos:station:SCCF:51:1,2008-01-02T07:00:00Z,26.5545,-82.1715,1.8,21.42,2 
SCCF RECON,ioos:station:SCCF:51:1,2008-01-02T08:00:00Z,26.5545,-82.1715,1.8,20.99,2 
SCCF RECON,ioos:station:SCCF:51:1,2008-01-02T09:00:00Z,26.5545,-82.1715,1.8,20.56,2 
SCCF RECON,ioos:station:SCCF:51:1,2008-01-02T10:00:00Z,26.5545,-82.1715,1.8,20.09,2 
SCCF RECON,ioos:station:SCCF:51:1,2008-01-02T11:00:00Z,26.5545,-82.1715,1.8,19.62,2 
SCCF RECON,ioos:station:SCCF:51:1,2008-01-02T12:00:00Z,26.5545,-82.1715,1.8,19.18,2 
SCCF RECON,ioos:station:SCCF:51:1,2008-01-02T13:00:00Z,26.5545,-82.1715,1.8,18.46,2 
SCCF RECON,ioos:station:SCCF:51:1,2008-01-02T14:00:00Z,26.5545,-82.1715,1.8,18.27,2 
SCCF RECON,ioos:station:SCCF:51:1,2008-01-02T15:00:00Z,26.5545,-82.1715,1.8,18.54,2 
SCCF RECON,ioos:station:SCCF:51:1,2008-01-02T16:00:00Z,26.5545,-82.1715,1.8,18.18,2 
SCCF RECON,ioos:station:SCCF:51:1,2008-01-02T17:00:00Z,26.5545,-82.1715,1.8,18.22,2 
SCCF RECON,ioos:station:SCCF:51:1,2008-01-02T18:00:00Z,26.5545,-82.1715,1.8,18.33,2 
SCCF RECON,ioos:station:SCCF:51:1,2008-01-02T19:00:00Z,26.5545,-82.1715,1.8,18.08,2 
SCCF RECON,ioos:station:SCCF:51:1,2008-01-02T20:00:00Z,26.5545,-82.1715,1.8,18.02,2 
SCCF RECON,ioos:station:SCCF:51:1,2008-01-02T21:00:00Z,26.5545,-82.1715,1.8,18.01,2 
SCCF RECON,ioos:station:SCCF:51:1,2008-01-02T23:00:00Z,26.5545,-82.1715,1.8,17.71,2 
SCCF RECON,ioos:station:SCCF:51:1,2008-01-03T00:00:00Z,26.5545,-82.1715,1.8,17.68,2 
SCCF RECON,ioos:station:SCCF:51:1,2008-01-03T01:00:00Z,26.5545,-82.1715,1.8,17.89,2 
SCCF RECON,ioos:station:SCCF:51:1,2008-01-03T02:00:00Z,26.5545,-82.1715,1.8,17.7,2 
SCCF RECON,ioos:station:SCCF:51:1,2008-01-03T03:00:00Z,26.5545,-82.1715,1.8,17.31,2 
SCCF RECON,ioos:station:SCCF:51:1,2008-01-03T05:00:00Z,26.5545,-82.1715,1.8,16.29,2 
SCCF RECON,ioos:station:SCCF:51:1,2008-01-03T06:00:00Z,26.5545,-82.1715,1.8,15.89,2 
SCCF RECON,ioos:station:SCCF:51:1,2008-01-03T07:00:00Z,26.5545,-82.1715,1.8,15.45,2 
SCCF RECON,ioos:station:SCCF:51:1,2008-01-03T08:00:00Z,26.5545,-82.1715,1.8,14.97,2 
SCCF RECON,ioos:station:SCCF:51:1,2008-01-03T09:00:00Z,26.5545,-82.1715,1.8,14.37,2 
SCCF RECON,ioos:station:SCCF:51:1,2008-01-03T10:00:00Z,26.5545,-82.1715,1.8,13.54,2 
SCCF RECON,ioos:station:SCCF:51:1,2008-01-03T11:00:00Z,26.5545,-82.1715,1.8,13.41,2 
SCCF RECON,ioos:station:SCCF:51:1,2008-01-03T12:00:00Z,26.5545,-82.1715,1.8,13.2,2 
SCCF RECON,ioos:station:SCCF:51:1,2008-01-03T13:00:00Z,26.5545,-82.1715,1.8,12.5,2 
SCCF RECON,ioos:station:SCCF:51:1,2008-01-03T14:00:00Z,26.5545,-82.1715,1.8,12.21,2 
SCCF RECON,ioos:station:SCCF:51:1,2008-01-03T15:00:00Z,26.5545,-82.1715,1.8,12.32,2 
SCCF RECON,ioos:station:SCCF:51:1,2008-01-03T16:00:00Z,26.5545,-82.1715,1.8,12.55,2 
SCCF RECON,ioos:station:SCCF:51:1,2008-01-03T17:00:00Z,26.5545,-82.1715,1.8,13.55,2 
SCCF RECON,ioos:station:SCCF:51:1,2008-01-03T18:00:00Z,26.5545,-82.1715,1.8,12.99,2 
SCCF RECON,ioos:station:SCCF:51:1,2008-01-03T19:00:00Z,26.5545,-82.1715,1.8,12.71,2 
SCCF RECON,ioos:station:SCCF:51:1,2008-01-03T20:00:00Z,26.5545,-82.1715,1.8,12.28,2 
SCCF RECON,ioos:station:SCCF:51:1,2008-01-03T21:00:00Z,26.5545,-82.1715,1.8,13.38,2 
SCCF RECON,ioos:station:SCCF:51:1,2008-01-03T22:00:00Z,26.5545,-82.1715,1.8,14.01,2 
SCCF RECON,ioos:station:SCCF:51:1,2008-01-03T23:00:00Z,26.5545,-82.1715,1.8,14.38,2 
SCCF RECON,ioos:station:SCCF:51:1,2008-01-04T00:00:00Z,26.5545,-82.1715,1.8,14.41,2 
SCCF RECON,ioos:station:SCCF:51:1,2008-01-04T01:00:00Z,26.5545,-82.1715,1.8,14.2,2 
SCCF RECON,ioos:station:SCCF:51:1,2008-01-04T02:00:00Z,26.5545,-82.1715,1.8,14.57,2 
SCCF RECON,ioos:station:SCCF:51:1,2008-01-04T03:00:00Z,26.5545,-82.1715,1.8,14.17,2 
SCCF RECON,ioos:station:SCCF:51:1,2008-01-04T04:00:00Z,26.5545,-82.1715,1.8,13.36,2 
SCCF RECON,ioos:station:SCCF:51:1,2008-01-04T05:00:00Z,26.5545,-82.1715,1.8,12.61,2 
SCCF RECON,ioos:station:SCCF:51:1,2008-01-04T06:00:00Z,26.5545,-82.1715,1.8,13.04,2 
SCCF RECON,ioos:station:SCCF:51:1,2008-01-04T07:00:00Z,26.5545,-82.1715,1.8,12.96,2 
SCCF RECON,ioos:station:SCCF:51:1,2008-01-04T08:00:00Z,26.5545,-82.1715,1.8,12.93,2 
SCCF RECON,ioos:station:SCCF:51:1,2008-01-04T09:00:00Z,26.5545,-82.1715,1.8,12.7,2 
SCCF RECON,ioos:station:SCCF:51:1,2008-01-04T10:00:00Z,26.5545,-82.1715,1.8,12.74,2 
SCCF RECON,ioos:station:SCCF:51:1,2008-01-04T11:00:00Z,26.5545,-82.1715,1.8,12.76,2 
SCCF RECON,ioos:station:SCCF:51:1,2008-01-04T12:00:00Z,26.5545,-82.1715,1.8,12.66,2 
SCCF RECON,ioos:station:SCCF:51:1,2008-01-04T13:00:00Z,26.5545,-82.1715,1.8,13.45,2 
SCCF RECON,ioos:station:SCCF:51:1,2008-01-04T14:00:00Z,26.5545,-82.1715,1.8,13.71,2 
SCCF RECON,ioos:station:SCCF:51:1,2008-01-04T15:00:00Z,26.5545,-82.1715,1.8,13.66,2 
SCCF RECON,ioos:station:SCCF:51:1,2008-01-04T16:00:00Z,26.5545,-82.1715,1.8,15.23,2 
SCCF RECON,ioos:station:SCCF:51:1,2008-01-04T17:00:00Z,26.5545,-82.1715,1.8,15.28,2 
SCCF RECON,ioos:station:SCCF:51:1,2008-01-04T18:00:00Z,26.5545,-82.1715,1.8,15.16,2 
SCCF RECON,ioos:station:SCCF:51:1,2008-01-04T19:00:00Z,26.5545,-82.1715,1.8,15.23,2 
SCCF RECON,ioos:station:SCCF:51:1,2008-01-04T20:00:00Z,26.5545,-82.1715,1.8,15.24,2 
SCCF RECON,ioos:station:SCCF:51:1,2008-01-04T21:00:00Z,26.5545,-82.1715,1.8,15.35,2 
SCCF RECON,ioos:station:SCCF:51:1,2008-01-04T22:00:00Z,26.5545,-82.1715,1.8,14.66,2 
SCCF RECON,ioos:station:SCCF:51:1,2008-01-04T23:00:00Z,26.5545,-82.1715,1.8,14.26,2 
SCCF RECON,ioos:station:SCCF:51:1,2008-01-05T00:00:00Z,26.5545,-82.1715,1.8,14.52,2 
SCCF RECON,ioos:station:SCCF:51:1,2008-01-05T01:00:00Z,26.5545,-82.1715,1.8,15.68,2 
SCCF RECON,ioos:station:SCCF:51:1,2008-01-05T02:00:00Z,26.5545,-82.1715,1.8,15.98,2 
SCCF RECON,ioos:station:SCCF:51:1,2008-01-05T03:00:00Z,26.5545,-82.1715,1.8,15.38,2 
SCCF RECON,ioos:station:SCCF:51:1,2008-01-05T04:00:00Z,26.5545,-82.1715,1.8,14.61,2 
SCCF RECON,ioos:station:SCCF:51:1,2008-01-05T05:00:00Z,26.5545,-82.1715,1.8,14.56,2 
SCCF RECON,ioos:station:SCCF:51:1,2008-01-05T06:00:00Z,26.5545,-82.1715,1.8,14.4,2 
SCCF RECON,ioos:station:SCCF:51:1,2008-01-05T07:00:00Z,26.5545,-82.1715,1.8,15.05,2 
SCCF RECON,ioos:station:SCCF:51:1,2008-01-05T08:00:00Z,26.5545,-82.1715,1.8,14.88,2 
SCCF RECON,ioos:station:SCCF:51:1,2008-01-05T09:00:00Z,26.5545,-82.1715,1.8,14.64,2 
SCCF RECON,ioos:station:SCCF:51:1,2008-01-05T11:00:00Z,26.5545,-82.1715,1.8,14.78,2 
SCCF RECON,ioos:station:SCCF:51:1,2008-01-05T12:00:00Z,26.5545,-82.1715,1.8,14.58,2 
SCCF RECON,ioos:station:SCCF:51:1,2008-01-05T13:00:00Z,26.5545,-82.1715,1.8,14.54,2 
SCCF RECON,ioos:station:SCCF:51:1,2008-01-05T14:00:00Z,26.5545,-82.1715,1.8,14.53,2 
SCCF RECON,ioos:station:SCCF:51:1,2008-01-05T15:00:00Z,26.5545,-82.1715,1.8,14.64,2 
SCCF RECON,ioos:station:SCCF:51:1,2008-01-05T16:00:00Z,26.5545,-82.1715,1.8,15.17,2 
SCCF RECON,ioos:station:SCCF:51:1,2008-01-05T17:00:00Z,26.5545,-82.1715,1.8,16.28,2 
SCCF RECON,ioos:station:SCCF:51:1,2008-01-05T18:00:00Z,26.5545,-82.1715,1.8,15.25,2 
SCCF RECON,ioos:station:SCCF:51:1,2008-01-05T19:00:00Z,26.5545,-82.1715,1.8,15.45,2 
SCCF RECON,ioos:station:SCCF:51:1,2008-01-05T20:00:00Z,26.5545,-82.1715,1.8,15.99,2 
SCCF RECON,ioos:station:SCCF:51:1,2008-01-05T21:00:00Z,26.5545,-82.1715,1.8,15.89,2 
SCCF RECON,ioos:station:SCCF:51:1,2008-01-05T22:00:00Z,26.5545,-82.1715,1.8,16.06,2 
SCCF RECON,ioos:station:SCCF:51:1,2008-01-05T23:00:00Z,26.5545,-82.1715,1.8,16.73,2 
SCCF RECON,ioos:station:SCCF:51:1,2008-01-06T00:00:00Z,26.5545,-82.1715,1.8,16.74,2 
SCCF RECON,ioos:station:SCCF:51:1,2008-01-06T01:00:00Z,26.5545,-82.1715,1.8,16.78,2 
SCCF RECON,ioos:station:SCCF:51:1,2008-01-06T02:00:00Z,26.5545,-82.1715,1.8,16.84,2 
SCCF RECON,ioos:station:SCCF:51:1,2008-01-06T03:00:00Z,26.5545,-82.1715,1.8,16.89,2 
SCCF RECON,ioos:station:SCCF:51:1,2008-01-06T04:00:00Z,26.5545,-82.1715,1.8,16.87,2 
SCCF RECON,ioos:station:SCCF:51:1,2008-01-06T05:00:00Z,26.5545,-82.1715,1.8,16.07,2 
SCCF RECON,ioos:station:SCCF:51:1,2008-01-06T06:00:00Z,26.5545,-82.1715,1.8,15.86,2 
SCCF RECON,ioos:station:SCCF:51:1,2008-01-06T07:00:00Z,26.5545,-82.1715,1.8,15.81,2 
SCCF RECON,ioos:station:SCCF:51:1,2008-01-06T08:00:00Z,26.5545,-82.1715,1.8,15.82,2 
SCCF RECON,ioos:station:SCCF:51:1,2008-01-06T09:00:00Z,26.5545,-82.1715,1.8,15.81,2 
SCCF RECON,ioos:station:SCCF:51:1,2008-01-06T10:00:00Z,26.5545,-82.1715,1.8,15.67,2 
SCCF RECON,ioos:station:SCCF:51:1,2008-01-06T11:00:00Z,26.5545,-82.1715,1.8,15.56,2 
SCCF RECON,ioos:station:SCCF:51:1,2008-01-06T12:00:00Z,26.5545,-82.1715,1.8,15.49,2 
SCCF RECON,ioos:station:SCCF:51:1,2008-01-06T13:00:00Z,26.5545,-82.1715,1.8,15.51,2 
SCCF RECON,ioos:station:SCCF:51:1,2008-01-06T14:00:00Z,26.5545,-82.1715,1.8,14.91,2 
SCCF RECON,ioos:station:SCCF:51:1,2008-01-06T16:00:00Z,26.5545,-82.1715,1.8,16.45,2 
SCCF RECON,ioos:station:SCCF:51:1,2008-01-06T17:00:00Z,26.5545,-82.1715,1.8,16.67,2 
SCCF RECON,ioos:station:SCCF:51:1,2008-01-06T18:00:00Z,26.5545,-82.1715,1.8,16.33,2 
SCCF RECON,ioos:station:SCCF:51:1,2008-01-06T19:00:00Z,26.5545,-82.1715,1.8,16.76,2 
SCCF RECON,ioos:station:SCCF:51:1,2008-01-06T20:00:00Z,26.5545,-82.1715,1.8,16.95,2 
SCCF RECON,ioos:station:SCCF:51:1,2008-01-06T21:00:00Z,26.5545,-82.1715,1.8,17.05,2 
SCCF RECON,ioos:station:SCCF:51:1,2008-01-06T22:00:00Z,26.5545,-82.1715,1.8,17.03,2 
SCCF RECON,ioos:station:SCCF:51:1,2008-01-06T23:00:00Z,26.5545,-82.1715,1.8,17.24,2 
SCCF RECON,ioos:station:SCCF:51:1,2008-01-07T00:00:00Z,26.5545,-82.1715,1.8,17.35,2 
SCCF RECON,ioos:station:SCCF:51:1,2008-01-07T01:00:00Z,26.5545,-82.1715,1.8,17.39,2 
SCCF RECON,ioos:station:SCCF:51:1,2008-01-07T02:00:00Z,26.5545,-82.1715,1.8,17.46,2 
SCCF RECON,ioos:station:SCCF:51:1,2008-01-07T03:00:00Z,26.5545,-82.1715,1.8,17.69,2 
SCCF RECON,ioos:station:SCCF:51:1,2008-01-07T04:00:00Z,26.5545,-82.1715,1.8,17.49,2 
SCCF RECON,ioos:station:SCCF:51:1,2008-01-07T05:00:00Z,26.5545,-82.1715,1.8,17.64,2 
SCCF RECON,ioos:station:SCCF:51:1,2008-01-07T06:00:00Z,26.5545,-82.1715,1.8,17.31,2 
SCCF RECON,ioos:station:SCCF:51:1,2008-01-07T07:00:00Z,26.5545,-82.1715,1.8,17.0,2 
SCCF RECON,ioos:station:SCCF:51:1,2008-01-07T08:00:00Z,26.5545,-82.1715,1.8,16.7,2 
SCCF RECON,ioos:station:SCCF:51:1,2008-01-07T09:00:00Z,26.5545,-82.1715,1.8,16.58,2 
SCCF RECON,ioos:station:SCCF:51:1,2008-01-07T10:00:00Z,26.5545,-82.1715,1.8,16.45,2 
SCCF RECON,ioos:station:SCCF:51:1,2008-01-07T11:00:00Z,26.5545,-82.1715,1.8,16.26,2 
SCCF RECON,ioos:station:SCCF:51:1,2008-01-07T12:00:00Z,26.5545,-82.1715,1.8,16.21,2 
SCCF RECON,ioos:station:SCCF:51:1,2008-01-07T13:00:00Z,26.5545,-82.1715,1.8,16.18,2 
SCCF RECON,ioos:station:SCCF:51:1,2008-01-07T14:00:00Z,26.5545,-82.1715,1.8,16.25,2 
SCCF RECON,ioos:station:SCCF:51:1,2008-01-07T15:00:00Z,26.5545,-82.1715,1.8,16.49,2 
SCCF RECON,ioos:station:SCCF:51:1,2008-01-07T16:00:00Z,26.5545,-82.1715,1.8,17.26,2 
SCCF RECON,ioos:station:SCCF:51:1,2008-01-07T17:00:00Z,26.5545,-82.1715,1.8,17.55,2 
SCCF RECON,ioos:station:SCCF:51:1,2008-01-07T18:00:00Z,26.5545,-82.1715,1.8,17.58,2 
SCCF RECON,ioos:station:SCCF:51:1,2008-01-07T19:00:00Z,26.5545,-82.1715,1.8,17.47,2 
SCCF RECON,ioos:station:SCCF:51:1,2008-01-07T20:00:00Z,26.5545,-82.1715,1.8,17.94,2 
SCCF RECON,ioos:station:SCCF:51:1,2008-01-07T21:00:00Z,26.5545,-82.1715,1.8,17.56,2 
SCCF RECON,ioos:station:SCCF:51:1,2008-01-07T22:00:00Z,26.5545,-82.1715,1.8,17.49,2 
SCCF RECON,ioos:station:SCCF:51:1,2008-01-07T23:00:00Z,26.5545,-82.1715,1.8,17.49,2 
SCCF RECON,ioos:station:SCCF:51:1,2008-01-08T00:00:00Z,26.5545,-82.1715,1.8,17.56,2 
SCCF RECON,ioos:station:SCCF:51:1,2008-01-08T01:00:00Z,26.5545,-82.1715,1.8,-9999.0,2 
SCCF RECON,ioos:station:SCCF:51:1,2008-01-08T02:00:00Z,26.5545,-82.1715,1.8,-9999.0,2 
SCCF RECON,ioos:station:SCCF:51:1,2008-01-08T03:00:00Z,26.5545,-82.1715,1.8,-9999.0,2 
SCCF RECON,ioos:station:SCCF:51:1,2008-01-08T04:00:00Z,26.5545,-82.1715,1.8,-9999.0,2 
SCCF RECON,ioos:station:SCCF:51:1,2008-01-08T05:00:00Z,26.5545,-82.1715,1.8,-9999.0,2 
SCCF RECON,ioos:station:SCCF:51:1,2008-01-08T06:00:00Z,26.5545,-82.1715,1.8,-9999.0,2 
SCCF RECON,ioos:station:SCCF:51:1,2008-01-08T07:00:00Z,26.5545,-82.1715,1.8,-9999.0,2 
SCCF RECON,ioos:station:SCCF:51:1,2008-01-08T08:00:00Z,26.5545,-82.1715,1.8,-9999.0,2 
SCCF RECON,ioos:station:SCCF:51:1,2008-01-08T09:00:00Z,26.5545,-82.1715,1.8,-9999.0,2 
SCCF RECON,ioos:station:SCCF:51:1,2008-01-08T10:00:00Z,26.5545,-82.1715,1.8,-9999.0,2 
SCCF RECON,ioos:station:SCCF:51:1,2008-01-08T11:00:00Z,26.5545,-82.1715,1.8,-9999.0,2 
SCCF RECON,ioos:station:SCCF:51:1,2008-01-08T12:00:00Z,26.5545,-82.1715,1.8,-9999.0,2 
SCCF RECON,ioos:station:SCCF:51:1,2008-01-08T13:00:00Z,26.5545,-82.1715,1.8,-9999.0,2 
SCCF RECON,ioos:station:SCCF:51:1,2008-01-08T14:00:00Z,26.5545,-82.1715,1.8,-9999.0,2 
SCCF RECON,ioos:station:SCCF:51:1,2008-01-08T15:00:00Z,26.5545,-82.1715,1.8,-9999.0,2 
SCCF RECON,ioos:station:SCCF:51:1,2008-01-08T16:00:00Z,26.5545,-82.1715,1.8,-9999.0,2 
SCCF RECON,ioos:station:SCCF:51:1,2008-01-08T17:00:00Z,26.5545,-82.1715,1.8,-9999.0,2 
SCCF RECON,ioos:station:SCCF:51:1,2008-01-08T18:00:00Z,26.5545,-82.1715,1.8,-9999.0,2 
SCCF RECON,ioos:station:SCCF:51:1,2008-01-08T19:00:00Z,26.5545,-82.1715,1.8,-9999.0,2 
SCCF RECON,ioos:station:SCCF:51:1,2008-01-08T20:00:00Z,26.5545,-82.1715,1.8,-9999.0,2 
SCCF RECON,ioos:station:SCCF:51:1,2008-01-08T21:00:00Z,26.5545,-82.1715,1.8,-9999.0,2 
SCCF RECON,ioos:station:SCCF:51:1,2008-01-08T22:00:00Z,26.5545,-82.1715,1.8,-9999.0,2 
SCCF RECON,ioos:station:SCCF:51:1,2008-01-08T23:00:00Z,26.5545,-82.1715,1.8,-9999.0,2 
SCCF RECON,ioos:station:SCCF:51:1,2008-01-09T00:00:00Z,26.5545,-82.1715,1.8,-9999.0,2 
SCCF RECON,ioos:station:SCCF:51:1,2008-01-09T01:00:00Z,26.5545,-82.1715,1.8,-9999.0,2 
SCCF RECON,ioos:station:SCCF:51:1,2008-01-09T02:00:00Z,26.5545,-82.1715,1.8,-9999.0,2 
SCCF RECON,ioos:station:SCCF:51:1,2008-01-09T03:00:00Z,26.5545,-82.1715,1.8,-9999.0,2 
SCCF RECON,ioos:station:SCCF:51:1,2008-01-09T04:00:00Z,26.5545,-82.1715,1.8,-9999.0,2 
SCCF RECON,ioos:station:SCCF:51:1,2008-01-09T06:00:00Z,26.5545,-82.1715,1.8,-9999.0,2 
SCCF RECON,ioos:station:SCCF:51:1,2008-01-09T07:00:00Z,26.5545,-82.1715,1.8,-9999.0,2 
SCCF RECON,ioos:station:SCCF:51:1,2008-01-09T08:00:00Z,26.5545,-82.1715,1.8,-9999.0,2 
SCCF RECON,ioos:station:SCCF:51:1,2008-01-09T09:00:00Z,26.5545,-82.1715,1.8,-9999.0,2 
SCCF RECON,ioos:station:SCCF:51:1,2008-01-09T10:00:00Z,26.5545,-82.1715,1.8,-9999.0,2 
SCCF RECON,ioos:station:SCCF:51:1,2008-01-09T11:00:00Z,26.5545,-82.1715,1.8,-9999.0,2 
SCCF RECON,ioos:station:SCCF:51:1,2008-01-09T12:00:00Z,26.5545,-82.1715,1.8,-9999.0,2 
SCCF RECON,ioos:station:SCCF:51:1,2008-01-09T13:00:00Z,26.5545,-82.1715,1.8,-9999.0,2 
SCCF RECON,ioos:station:SCCF:51:1,2008-01-09T14:00:00Z,26.5545,-82.1715,1.8,-9999.0,2 
SCCF RECON,ioos:station:SCCF:51:1,2008-01-09T15:00:00Z,26.5545,-82.1715,1.8,-9999.0,2 
SCCF RECON,ioos:station:SCCF:51:1,2008-01-09T16:00:00Z,26.5545,-82.1715,1.8,-9999.0,2 
SCCF RECON,ioos:station:SCCF:51:1,2008-01-09T17:00:00Z,26.5545,-82.1715,1.8,18.52,2 
SCCF RECON,ioos:station:SCCF:51:1,2008-01-09T18:00:00Z,26.5545,-82.1715,1.8,18.77,2 
SCCF RECON,ioos:station:SCCF:51:1,2008-01-09T19:00:00Z,26.5545,-82.1715,1.8,18.74,2 
SCCF RECON,ioos:station:SCCF:51:1,2008-01-09T20:00:00Z,26.5545,-82.1715,1.8,18.88,2 
SCCF RECON,ioos:station:SCCF:51:1,2008-01-09T21:00:00Z,26.5545,-82.1715,1.8,19.07,2 
SCCF RECON,ioos:station:SCCF:51:1,2008-01-09T22:00:00Z,26.5545,-82.1715,1.8,18.71,2 
SCCF RECON,ioos:station:SCCF:51:1,2008-01-09T23:00:00Z,26.5545,-82.1715,1.8,18.66,2 
SCCF RECON,ioos:station:SCCF:51:1,2008-01-10T00:00:00Z,26.5545,-82.1715,1.8,18.91,2 
SCCF RECON,ioos:station:SCCF:51:1,2008-01-10T01:00:00Z,26.5545,-82.1715,1.8,18.83,2 
SCCF RECON,ioos:station:SCCF:51:1,2008-01-10T02:00:00Z,26.5545,-82.1715,1.8,18.89,2 
SCCF RECON,ioos:station:SCCF:51:1,2008-01-10T03:00:00Z,26.5545,-82.1715,1.8,18.93,2 
SCCF RECON,ioos:station:SCCF:51:1,2008-01-10T04:00:00Z,26.5545,-82.1715,1.8,19.0,2 
SCCF RECON,ioos:station:SCCF:51:1,2008-01-10T05:00:00Z,26.5545,-82.1715,1.8,18.62,2 
SCCF RECON,ioos:station:SCCF:51:1,2008-01-10T06:00:00Z,26.5545,-82.1715,1.8,18.59,2 
SCCF RECON,ioos:station:SCCF:51:1,2008-01-10T07:00:00Z,26.5545,-82.1715,1.8,18.59,2 
SCCF RECON,ioos:station:SCCF:51:1,2008-01-10T08:00:00Z,26.5545,-82.1715,1.8,18.98,2 
SCCF RECON,ioos:station:SCCF:51:1,2008-01-10T10:00:00Z,26.5545,-82.1715,1.8,18.61,2 
SCCF RECON,ioos:station:SCCF:51:1,2008-01-10T11:00:00Z,26.5545,-82.1715,1.8,18.39,2 
SCCF RECON,ioos:station:SCCF:51:1,2008-01-10T12:00:00Z,26.5545,-82.1715,1.8,18.26,2 
SCCF RECON,ioos:station:SCCF:51:1,2008-01-10T13:00:00Z,26.5545,-82.1715,1.8,18.37,2 
SCCF RECON,ioos:station:SCCF:51:1,2008-01-10T14:00:00Z,26.5545,-82.1715,1.8,18.51,2 
SCCF RECON,ioos:station:SCCF:51:1,2008-01-10T15:00:00Z,26.5545,-82.1715,1.8,18.55,2 
SCCF RECON,ioos:station:SCCF:51:1,2008-01-10T16:00:00Z,26.5545,-82.1715,1.8,18.7,2 
SCCF RECON,ioos:station:SCCF:51:1,2008-01-10T17:00:00Z,26.5545,-82.1715,1.8,19.04,2 
SCCF RECON,ioos:station:SCCF:51:1,2008-01-10T18:00:00Z,26.5545,-82.1715,1.8,19.16,2 
SCCF RECON,ioos:station:SCCF:51:1,2008-01-10T19:00:00Z,26.5545,-82.1715,1.8,19.35,2 
SCCF RECON,ioos:station:SCCF:51:1,2008-01-10T20:00:00Z,26.5545,-82.1715,1.8,19.51,2 
SCCF RECON,ioos:station:SCCF:51:1,2008-01-10T21:00:00Z,26.5545,-82.1715,1.8,19.59,2 
SCCF RECON,ioos:station:SCCF:51:1,2008-01-10T22:00:00Z,26.5545,-82.1715,1.8,19.52,2 
SCCF RECON,ioos:station:SCCF:51:1,2008-01-10T23:00:00Z,26.5545,-82.1715,1.8,19.46,2 
SCCF RECON,ioos:station:SCCF:51:1,2008-01-11T00:00:00Z,26.5545,-82.1715,1.8,19.43,2 
SCCF RECON,ioos:station:SCCF:51:1,2008-01-11T01:00:00Z,26.5545,-82.1715,1.8,19.42,2 
SCCF RECON,ioos:station:SCCF:51:1,2008-01-11T02:00:00Z,26.5545,-82.1715,1.8,19.53,2 
SCCF RECON,ioos:station:SCCF:51:1,2008-01-11T03:00:00Z,26.5545,-82.1715,1.8,19.35,2 
SCCF RECON,ioos:station:SCCF:51:1,2008-01-11T04:00:00Z,26.5545,-82.1715,1.8,19.54,2 
SCCF RECON,ioos:station:SCCF:51:1,2008-01-11T05:00:00Z,26.5545,-82.1715,1.8,19.39,2 
SCCF RECON,ioos:station:SCCF:51:1,2008-01-11T06:00:00Z,26.5545,-82.1715,1.8,19.3,2 
SCCF RECON,ioos:station:SCCF:51:1,2008-01-11T07:00:00Z,26.5545,-82.1715,1.8,19.29,2 
SCCF RECON,ioos:station:SCCF:51:1,2008-01-11T08:00:00Z,26.5545,-82.1715,1.8,19.34,2 
SCCF RECON,ioos:station:SCCF:51:1,2008-01-11T09:00:00Z,26.5545,-82.1715,1.8,19.36,2 
SCCF RECON,ioos:station:SCCF:51:1,2008-01-11T10:00:00Z,26.5545,-82.1715,1.8,19.32,2 
SCCF RECON,ioos:station:SCCF:51:1,2008-01-11T11:00:00Z,26.5545,-82.1715,1.8,19.13,2 
SCCF RECON,ioos:station:SCCF:51:1,2008-01-11T12:00:00Z,26.5545,-82.1715,1.8,19.07,2 
SCCF RECON,ioos:station:SCCF:51:1,2008-01-11T13:00:00Z,26.5545,-82.1715,1.8,19.05,2 
SCCF RECON,ioos:station:SCCF:51:1,2008-01-11T14:00:00Z,26.5545,-82.1715,1.8,19.13,2 
SCCF RECON,ioos:station:SCCF:51:1,2008-01-11T15:00:00Z,26.5545,-82.1715,1.8,19.3,2 
SCCF RECON,ioos:station:SCCF:51:1,2008-01-11T16:00:00Z,26.5545,-82.1715,1.8,19.42,2 
SCCF RECON,ioos:station:SCCF:51:1,2008-01-11T17:00:00Z,26.5545,-82.1715,1.8,19.52,2 
SCCF RECON,ioos:station:SCCF:51:1,2008-01-11T18:00:00Z,26.5545,-82.1715,1.8,19.65,2 
SCCF RECON,ioos:station:SCCF:51:1,2008-01-11T19:00:00Z,26.5545,-82.1715,1.8,19.76,2 
SCCF RECON,ioos:station:SCCF:51:1,2008-01-11T20:00:00Z,26.5545,-82.1715,1.8,19.74,2 
SCCF RECON,ioos:station:SCCF:51:1,2008-01-11T22:00:00Z,26.5545,-82.1715,1.8,19.88,2 
SCCF RECON,ioos:station:SCCF:51:1,2008-01-11T23:00:00Z,26.5545,-82.1715,1.8,19.75,2 
SCCF RECON,ioos:station:SCCF:51:1,2008-01-12T00:00:00Z,26.5545,-82.1715,1.8,19.69,2 
SCCF RECON,ioos:station:SCCF:51:1,2008-01-12T01:00:00Z,26.5545,-82.1715,1.8,19.69,2 
SCCF RECON,ioos:station:SCCF:51:1,2008-01-12T02:00:00Z,26.5545,-82.1715,1.8,19.72,2 
SCCF RECON,ioos:station:SCCF:51:1,2008-01-12T03:00:00Z,26.5545,-82.1715,1.8,19.71,2 
SCCF RECON,ioos:station:SCCF:51:1,2008-01-12T04:00:00Z,26.5545,-82.1715,1.8,19.67,2 
SCCF RECON,ioos:station:SCCF:51:1,2008-01-12T05:00:00Z,26.5545,-82.1715,1.8,19.72,2 
SCCF RECON,ioos:station:SCCF:51:1,2008-01-12T06:00:00Z,26.5545,-82.1715,1.8,19.59,2 
SCCF RECON,ioos:station:SCCF:51:1,2008-01-12T07:00:00Z,26.5545,-82.1715,1.8,19.55,2 
SCCF RECON,ioos:station:SCCF:51:1,2008-01-12T08:00:00Z,26.5545,-82.1715,1.8,19.52,2 
SCCF RECON,ioos:station:SCCF:51:1,2008-01-12T09:00:00Z,26.5545,-82.1715,1.8,19.61,2 
SCCF RECON,ioos:station:SCCF:51:1,2008-01-12T10:00:00Z,26.5545,-82.1715,1.8,19.59,2 
SCCF RECON,ioos:station:SCCF:51:1,2008-01-12T11:00:00Z,26.5545,-82.1715,1.8,19.62,2 
SCCF RECON,ioos:station:SCCF:51:1,2008-01-12T12:00:00Z,26.5545,-82.1715,1.8,19.61,2 
SCCF RECON,ioos:station:SCCF:51:1,2008-01-12T13:00:00Z,26.5545,-82.1715,1.8,19.37,2 
SCCF RECON,ioos:station:SCCF:51:1,2008-01-12T14:00:00Z,26.5545,-82.1715,1.8,19.36,2 
SCCF RECON,ioos:station:SCCF:51:1,2008-01-12T15:00:00Z,26.5545,-82.1715,1.8,19.65,2 
SCCF RECON,ioos:station:SCCF:51:1,2008-01-12T16:00:00Z,26.5545,-82.1715,1.8,19.76,2 
SCCF RECON,ioos:station:SCCF:51:1,2008-01-12T17:00:00Z,26.5545,-82.1715,1.8,20.17,2 
SCCF RECON,ioos:station:SCCF:51:1,2008-01-12T18:00:00Z,26.5545,-82.1715,1.8,20.09,2 
SCCF RECON,ioos:station:SCCF:51:1,2008-01-12T19:00:00Z,26.5545,-82.1715,1.8,20.24,2 
SCCF RECON,ioos:station:SCCF:51:1,2008-01-12T20:00:00Z,26.5545,-82.1715,1.8,20.14,2 
SCCF RECON,ioos:station:SCCF:51:1,2008-01-12T21:00:00Z,26.5545,-82.1715,1.8,20.14,2 
SCCF RECON,ioos:station:SCCF:51:1,2008-01-12T22:00:00Z,26.5545,-82.1715,1.8,20.21,2 
SCCF RECON,ioos:station:SCCF:51:1,2008-01-12T23:00:00Z,26.5545,-82.1715,1.8,20.34,2 
SCCF RECON,ioos:station:SCCF:51:1,2008-01-13T00:00:00Z,26.5545,-82.1715,1.8,20.2,2 
SCCF RECON,ioos:station:SCCF:51:1,2008-01-13T01:00:00Z,26.5545,-82.1715,1.8,20.24,2 
SCCF RECON,ioos:station:SCCF:51:1,2008-01-13T02:00:00Z,26.5545,-82.1715,1.8,20.35,2 
SCCF RECON,ioos:station:SCCF:51:1,2008-01-13T03:00:00Z,26.5545,-82.1715,1.8,20.36,2 
SCCF RECON,ioos:station:SCCF:51:1,2008-01-13T04:00:00Z,26.5545,-82.1715,1.8,20.44,2 